This demonstration page uses our WeatherBlox Daily Observations layout. Learn more.

36.17497, -115.13722

Hourly Observations for February 26, 2016

Temp ( °F °C ) Dew Point ( °F °C ) Humidity (%) Winds ( mph kmh ) Pressure ( in mb ) Visibility ( mi km ) Precip ( " mm )
12:53 am 00:53 Clear 52 11.1 24 -4.4 34 34 NW 6 9 30.18 1022 10 16.0934 0 0
1:53 am 01:53 Clear 52 11.1 23 -5 32 32 NW 6 9 30.18 1022 10 16.0934 0 0
2:53 am 02:53 Clear 52 11.1 24 -4.4 34 34 WNW 6 9 30.17 1022 10 16.0934 0 0
3:53 am 03:53 Clear 51 10.6 24 -4.4 35 35 NW 5 7 30.17 1022 10 16.0934 0 0
4:53 am 04:53 Clear 48 8.9 24 -4.4 39 39 Calm 30.19 1022 10 16.0934 0 0
5:53 am 05:53 Clear 49 9.4 25 -3.9 39 39 NW 5 7 30.19 1023 10 16.0934 0 0
6:53 am 06:53 Sunny 50 10 26 -3.3 39 39 NW 6 9 30.21 1023 10 16.0934 0 0
7:53 am 07:53 Sunny 56 13.3 26 -3.3 32 32 Calm 30.23 1024 10 16.0934 0 0
8:53 am 08:53 Sunny 62 16.7 27 -2.8 26 26 Calm 30.23 1024 10 16.0934 0 0
9:53 am 09:53 Sunny 66 18.9 23 -5 19 19 Calm 30.22 1023 10 16.0934 0 0
10:53 am 10:53 Sunny 70 21.1 23 -5 17 17 Calm 30.21 1023 10 16.0934 0 0
11:53 am 11:53 Sunny 72 22.2 23 -5 16 16 SE 3 6 30.18 1022 10 16.0934 0 0
12:53 pm 12:53 Sunny 74 23.3 25 -3.9 16 16 E 5 7 30.14 1021 10 16.0934 0 0
1:53 pm 13:53 Sunny 75 23.9 24 -4.4 15 15 SE 6 9 30.11 1020 10 16.0934 0 0
2:53 pm 14:53 Sunny 76 24.4 24 -4.4 14 14 SE 3 6 30.09 1019 10 16.0934 0 0
3:53 pm 15:53 Sunny 75 23.9 23 -5 14 14 Calm 30.09 1019 10 16.0934 0 0
4:53 pm 16:53 Sunny 75 23.9 23 -5 14 14 SE 3 6 30.07 1018 10 16.0934 0 0
5:53 pm 17:53 Clear 72 22.2 23 -5 16 16 ESE 3 6 30.08 1019 10 16.0934 0 0
6:53 pm 18:53 Clear 69 20.6 23 -5 17 17 Calm 30.08 1019 10 16.0934 0 0
7:53 pm 19:53 Clear 65 18.3 27 -2.8 24 24 WNW 7 11 30.08 1019 10 16.0934 0 0
8:53 pm 20:53 Clear 62 16.7 27 -2.8 26 26 NW 6 9 30.09 1019 10 16.0934 0 0
9:53 pm 21:53 Clear 63 17.2 27 -2.8 26 26 Calm 30.08 1019 10 16.0934 0 0
10:53 pm 22:53 Clear 61 16.1 27 -2.8 27 27 N 3 6 30.08 1019 10 16.0934 0 0
11:53 pm 23:53 Clear 58 14.4 27 -2.8 31 31 N 5 7 30.07 1018 10 16.0934 0 0

Powered by AerisWeather